BEESAT 9

Last updated on Sat Apr 13 2024 01:03:33 GMT+0100 (British Summer Time)

1 44412U 19038AC 24103.55840505 .00142803 00000+0 14117-2 0 9991 2 44412 97.6843 105.3320 0002256 304.7701 55.3345 15.65414312264464
UTC large
Height (km)
Speed (km/s)
/
Latitude / Longitude
Inclination (degrees)
Orbital Period (minutes)
Azimuth
Elevation
Range (km)
Doppler Factor

Next 0 passes for location: London (51.5072 / 0.1276)

Sorry there are no passes over London.